Weather History for KPTS - July, 2013

Change the Weather History Date:

Thursday, July 4, 2013

  Actual Average (KJLN) Record (KJLN)
Temperature  
Mean Temperature 74 °F 80 °F  
Max Temperature 87 °F 90 °F 102 °F (1954)
Min Temperature 60 °F 69 °F 56 °F (1968)
Degree Days  
Heating Degree Days 0 0  
Month to date heating degree days 0  
Since 1 June heating degree days 5  
Since 1 July heating degree days 0  
Cooling Degree Days 8 14  
Month to date cooling degree days 56  
Year to date cooling degree days 554  
Since 1 June cooling degree days 374  
Growing Degree Days 24 (Base 50)    
Moisture  
Dew Point 59 °F    
Average Humidity 63    
Maximum Humidity 100    
Minimum Humidity 31    
Precipitation  
Precipitation 0.00 in 0.14 in 2.92 in (1983)
Month to date precipitation 0.57  
Year to date precipitation 24.38  
Sea Level Pressure  
Sea Level Pressure 30.02 in    
Wind  
Wind Speed 3 mph (SSE)    
Max Wind Speed 10 mph    
Max Gust Speed -    
Visibility 10 miles    
Events      
T = Trace of Precipitation, MM = Missing Value Source: NWS Daily Summary

Daily Weather History Graph

Daily Weather History Graph

Search for Another Location

Airport or City:

Trip Planner

Search our weather history database for the weather conditions in past years. The results will help you decide how hot, cold, wet, or windy it might be!

Date:

Astronomy

Jul. 04, 2013 Rise Set
Actual Time 6:03 AM CDT 8:43 PM CDT
Civil Twilight 5:32 AM CDT 9:14 PM CDT
Nautical Twilight 4:53 AM CDT 9:52 PM CDT
Astronomical Twilight 4:10 AM CDT 10:35 PM CDT
Moon 3:18 AM CDT (7/4) 5:49 PM CDT (7/4)
Length of Visible Light 15h 41m
Length of Day
14h 40m
Waning Crescent, 11% of the Moon is Illuminated
Jul 4
Waning Crescent
Jul 8
New
Jul 15
First Quarter
Jul 22
Full
Jul 29
Last Quarter

Hourly Weather History & Observations

Time (CDT) Temp. Heat Index Dew Point Humidity Pressure Visibility Wind Dir Wind Speed Gust Speed Precip Events Conditions
12:15 AM 63.0 °F - 62.8 °F 99% 30.06 in 10.0 mi Calm Calm - N/A   Clear
12:35 AM 61.9 °F - 62.1 °F 100% 30.07 in 10.0 mi NE 5.8 mph - N/A   Clear
12:55 AM 61.9 °F - 62.1 °F 100% 30.07 in 10.0 mi North 4.6 mph - N/A   Clear
1:15 AM 62.1 °F - 62.2 °F 100% 30.06 in 10.0 mi Calm Calm - N/A   Clear
1:35 AM 61.9 °F - 62.1 °F 100% 30.05 in 10.0 mi Calm Calm - N/A   Clear
1:55 AM 61.2 °F - 61.3 °F 100% 30.04 in 10.0 mi Calm Calm - N/A   Clear
2:15 AM 60.8 °F - - N/A% 30.04 in 7.0 mi Calm Calm - N/A   Clear
2:35 AM 60.8 °F - - N/A% 30.04 in 10.0 mi Calm Calm - N/A   Clear
2:55 AM 60.8 °F - - N/A% 30.03 in 10.0 mi Calm Calm - N/A   Clear
3:15 AM 60.8 °F - - N/A% 30.03 in 10.0 mi Calm Calm - N/A   Clear
3:35 AM 60.8 °F - - N/A% 30.03 in 10.0 mi Calm Calm - N/A   Clear
3:55 AM 60.8 °F - - N/A% 30.02 in 10.0 mi Calm Calm - N/A   Clear
4:15 AM 60.8 °F - - N/A% 30.02 in 10.0 mi Calm Calm - N/A   Clear
4:35 AM 60.8 °F - - N/A% 30.02 in 10.0 mi Calm Calm - N/A   Clear
4:55 AM 61.5 °F - 61.3 °F 99% 30.02 in 10.0 mi Calm Calm - N/A   Clear
5:15 AM 61.9 °F - 61.2 °F 97% 30.02 in 10.0 mi Calm Calm - N/A   Clear
5:35 AM 61.0 °F - 61.2 °F 100% 30.03 in 10.0 mi Calm Calm - N/A   Clear
5:55 AM 61.0 °F - 61.2 °F 100% 30.03 in 10.0 mi Calm Calm - N/A   Clear
6:15 AM 60.8 °F - 61.0 °F 100% 30.04 in 10.0 mi Calm Calm - N/A   Clear
6:35 AM 60.8 °F - 60.8 °F 100% 30.04 in 10.0 mi South 3.5 mph - N/A   Clear
6:55 AM 60.8 °F - 60.4 °F 99% 30.04 in 10.0 mi South 3.5 mph - N/A   Clear
7:15 AM 62.4 °F - 61.9 °F 98% 30.05 in 10.0 mi South 3.5 mph - N/A   Clear
7:35 AM 64.8 °F - 62.2 °F 92% 30.05 in 10.0 mi South 4.6 mph - N/A   Clear
7:55 AM 67.3 °F - 62.4 °F 84% 30.06 in 10.0 mi SSE 3.5 mph - N/A   Clear
8:15 AM 70.3 °F - 61.2 °F 73% 30.06 in 10.0 mi South 5.8 mph - N/A   Clear
8:35 AM 70.9 °F - 59.4 °F 67% 30.06 in 10.0 mi SSW 6.9 mph - N/A   Clear
8:55 AM 71.1 °F - 58.6 °F 65% 30.06 in 10.0 mi SSW 5.8 mph - N/A   Clear
9:15 AM 74.3 °F - 60.1 °F 61% 30.07 in 10.0 mi SSW 8.1 mph - N/A   Clear
9:35 AM 76.1 °F - 60.3 °F 58% 30.06 in 10.0 mi SW 8.1 mph - N/A   Clear
9:55 AM 76.6 °F - 59.4 °F 55% 30.06 in 10.0 mi WSW 6.9 mph - N/A   Clear
10:35 AM 79.7 °F - 59.0 °F 49% 30.06 in 10.0 mi SSW 10.4 mph - N/A   Clear
11:15 AM 81.1 °F 81.4 °F 58.6 °F 46% 30.06 in 10.0 mi SSW 8.1 mph - N/A   Clear
11:55 AM 82.2 °F 82.0 °F 57.9 °F 43% 30.05 in 10.0 mi SW 10.4 mph - N/A   Clear
12:15 PM 82.6 °F 82.3 °F 58.1 °F 43% 30.05 in 10.0 mi SSW 5.8 mph - N/A   Clear
12:35 PM 83.1 °F 82.4 °F 56.7 °F 40% 30.04 in 10.0 mi SW 8.1 mph - N/A   Clear
12:55 PM 82.9 °F 82.0 °F 55.2 °F 38% 30.04 in 10.0 mi South 4.6 mph - N/A   Clear
1:15 PM 83.8 °F 82.6 °F 54.3 °F 36% 30.03 in 10.0 mi SW 6.9 mph - N/A   Clear
2:15 PM 85.6 °F 83.8 °F 53.8 °F 33% 30.02 in 10.0 mi SW 6.9 mph - N/A   Clear
2:35 PM 87.8 °F 85.7 °F 54.0 °F 31% 30.02 in 10.0 mi SW 10.4 mph - N/A   Clear
2:55 PM 85.8 °F - 52.3 °F 32% 30.01 in 10.0 mi South 3.5 mph - N/A   Clear
3:15 PM 83.1 °F - 52.5 °F 35% 30.01 in 10.0 mi SSE 6.9 mph - N/A   Clear
3:35 PM 81.3 °F 81.0 °F 55.4 °F 41% 30.01 in 10.0 mi SSE 4.6 mph - N/A   Clear
3:55 PM 81.0 °F 80.8 °F 56.1 °F 42% 30.01 in 10.0 mi SE 5.8 mph - N/A   Clear
4:15 PM 81.7 °F 81.3 °F 56.1 °F 41% 30.00 in 10.0 mi SE 9.2 mph - N/A   Clear
4:35 PM 83.1 °F 82.1 °F 54.1 °F 37% 29.99 in 10.0 mi SE 5.8 mph - N/A   Clear
5:15 PM 81.7 °F 81.2 °F 55.0 °F 40% 29.98 in 10.0 mi ESE 4.6 mph - N/A   Clear
5:55 PM 83.5 °F 82.4 °F 54.5 °F 37% 29.97 in 10.0 mi SE 8.1 mph - N/A   Clear
6:55 PM 82.4 °F 81.4 °F 53.8 °F 37% 29.97 in 10.0 mi SE 9.2 mph - N/A   Clear
7:15 PM 81.9 °F 81.3 °F 55.6 °F 40% 29.97 in 10.0 mi ESE 10.4 mph - N/A   Clear
7:35 PM 81.0 °F 81.0 °F 57.4 °F 44% 29.97 in 10.0 mi East 6.9 mph - N/A   Clear
7:55 PM 80.2 °F 80.5 °F 57.4 °F 45% 29.97 in 10.0 mi NE 5.8 mph - N/A   Clear
8:15 PM 78.6 °F - 56.5 °F 46% 29.98 in 10.0 mi SE 5.8 mph - N/A   Clear
8:35 PM 78.3 °F - 57.4 °F 49% 29.98 in 10.0 mi SE 4.6 mph - N/A   Clear
8:55 PM 76.6 °F - 57.6 °F 52% 29.98 in 10.0 mi SE 5.8 mph - N/A   Clear
9:15 PM 76.1 °F - 58.1 °F 54% 29.98 in 10.0 mi SE 5.8 mph - N/A   Clear
9:35 PM 76.1 °F - 58.6 °F 55% 29.99 in 10.0 mi SE 5.8 mph - N/A   Clear
9:55 PM 76.1 °F - 59.7 °F 57% 29.99 in 10.0 mi SE 5.8 mph - N/A   Clear
10:15 PM 76.1 °F - 60.4 °F 58% 30.00 in 10.0 mi SE 5.8 mph - N/A   Clear
10:35 PM 73.8 °F - 59.5 °F 61% 30.00 in 10.0 mi SE 4.6 mph - N/A   Clear
10:55 PM 71.4 °F - 59.0 °F 65% 30.00 in 10.0 mi SSE 4.6 mph - N/A   Clear
11:15 PM 70.9 °F - 59.7 °F 68% 30.00 in 10.0 mi SSE 5.8 mph - N/A   Clear
11:35 PM 70.9 °F - 59.7 °F 68% 30.01 in 10.0 mi SSE 6.9 mph - N/A   Clear
11:55 PM 70.9 °F - 59.4 °F 67% 30.00 in 10.0 mi SSE 8.1 mph - N/A   Clear